contact:dominique.lefevre@mio.osupytheas.fr, maurice.libes@osupytheas.fr, didier.mallarino@osupytheas.fr
Project:EMSO http://www.emso-fr.org/EMSO-France
Depth: 2436.0 m
Title:EMSO Ligure Ouest : Data MII capteur AQUADOPP
Date,Latitude,Longitude,X_East,Y_North,Z_Up,Amplitude_X,Amplitude_Y,Amplitude_Z,Batterie,SoundSpeed,Heading,Pitch,Roll,Pressure,TIS,Speed,Direction
, degrees North, degrees East, m.s-1, m.s-1,m.s-1, 1, 1, 1, Volt, m.s-1, degree, degree, degree, dbar, degree_C, m.s-1, degree
2022-04-23T00:04:03,42.805,6.029,-0.054,-0.005,-0.005,107.0,106.0,105.0,13.4,1505.2,326.5,-0.7,1.8,2470.772,13.28,0.054,264.7
2022-04-23T00:07:03,42.805,6.029,-0.037,-0.022,-0.002,107.0,106.0,104.0,13.4,1505.2,329.1,-0.8,1.8,2470.712,13.28,0.043,239.3
2022-04-23T00:10:03,42.805,6.029,-0.021,-0.021,-0.026,109.0,105.0,104.0,13.4,1505.2,322.7,-0.8,1.8,2470.716,13.28,0.029,225.0
2022-04-23T00:13:03,42.805,6.029,-0.05,-0.016,0.022,107.0,107.0,105.0,13.4,1505.2,327.4,-0.8,1.8,2470.752,13.28,0.052,252.3
2022-04-23T00:16:03,42.805,6.029,-0.044,-0.01,0.025,107.0,107.0,104.0,13.4,1505.2,326.7,-0.8,1.8,2470.705,13.29,0.045,257.2
2022-04-23T00:19:03,42.805,6.029,-0.033,-0.005,-0.021,108.0,106.0,104.0,13.3,1505.2,325.9,-0.8,1.8,2470.735,13.29,0.033,261.4
2022-04-23T00:22:03,42.805,6.029,-0.042,-0.008,-0.018,107.0,106.0,104.0,13.3,1505.2,323.6,-0.7,1.8,2470.737,13.29,0.042,259.2
2022-04-23T00:25:03,42.805,6.029,-0.02,-0.016,0.004,107.0,107.0,105.0,13.4,1505.2,324.6,-0.8,1.8,2470.698,13.29,0.025,231.3
2022-04-23T00:28:03,42.805,6.029,-0.04,-0.011,0.031,106.0,107.0,104.0,13.3,1505.2,330.5,-0.7,1.8,2470.714,13.29,0.041,254.6
2022-04-23T00:31:03,42.805,6.029,-0.018,0.0,0.023,107.0,106.0,105.0,13.4,1505.2,328.9,-0.8,1.8,2470.738,13.29,0.018,270.0
2022-04-23T00:34:03,42.805,6.029,-0.053,-0.01,-0.006,106.0,107.0,104.0,13.3,1505.2,329.3,-0.7,1.8,2470.709,13.29,0.053,259.3
2022-04-23T00:37:03,42.805,6.029,-0.042,-0.017,0.003,108.0,106.0,105.0,13.3,1505.2,331.6,-0.7,1.8,2470.674,13.29,0.045,248.0
2022-04-23T00:40:03,42.805,6.029,-0.035,0.0,-0.005,108.0,107.0,106.0,13.4,1505.2,322.2,-0.8,1.8,2470.669,13.29,0.035,270.0
2022-04-23T00:43:03,42.805,6.029,-0.031,-0.008,-0.026,108.0,107.0,105.0,13.4,1505.2,331.4,-0.8,1.8,2470.688,13.29,0.032,255.5
2022-04-23T00:46:03,42.805,6.029,-0.023,-0.023,0.012,108.0,109.0,106.0,13.3,1505.2,326.3,-0.8,1.8,2470.644,13.29,0.032,225.0
2022-04-23T00:49:03,42.805,6.029,-0.025,-0.022,-0.013,108.0,107.0,103.0,13.4,1505.2,331.4,-0.8,1.8,2470.674,13.29,0.033,228.7
2022-04-23T00:52:03,42.805,6.029,-0.022,-0.023,-0.005,106.0,106.0,104.0,13.4,1505.2,330.3,-0.7,1.8,2470.685,13.29,0.031,223.7
2022-04-23T00:55:03,42.805,6.029,-0.046,-0.015,-0.002,106.0,107.0,103.0,13.4,1505.2,332.1,-0.7,1.8,2470.708,13.29,0.048,251.9
2022-04-23T00:58:03,42.805,6.029,-0.044,-0.009,-0.014,107.0,107.0,106.0,13.3,1505.2,327.5,-0.7,1.8,2470.71,13.29,0.044,258.4
2022-04-23T01:04:03,42.805,6.029,-0.022,-0.001,-0.005,108.0,108.0,105.0,13.4,1505.2,322.9,-0.7,1.8,2470.783,13.28,0.022,267.4
2022-04-23T01:07:03,42.805,6.029,-0.033,-0.009,-0.023,109.0,107.0,104.0,13.3,1505.2,332.4,-0.7,1.8,2470.768,13.28,0.034,254.7
2022-04-23T01:10:03,42.805,6.029,-0.021,-0.013,0.01,109.0,107.0,104.0,13.4,1505.2,328.2,-0.7,1.8,2470.799,13.28,0.024,238.2
2022-04-23T01:13:03,42.805,6.029,-0.037,-0.012,-0.02,108.0,107.0,105.0,13.4,1505.2,326.4,-0.7,1.8,2470.787,13.28,0.038,252.0
2022-04-23T01:16:03,42.805,6.029,-0.033,-0.016,-0.007,106.0,106.0,106.0,13.3,1505.2,324.2,-0.7,1.8,2470.839,13.28,0.036,244.1
2022-04-23T01:19:03,42.805,6.029,-0.034,-0.012,-0.007,106.0,107.0,105.0,13.3,1505.2,329.8,-0.7,1.8,2470.832,13.29,0.036,250.6
2022-04-23T01:22:03,42.805,6.029,-0.036,-0.02,-0.007,107.0,108.0,105.0,13.4,1505.2,327.3,-0.7,1.8,2470.841,13.29,0.041,240.9
2022-04-23T01:25:03,42.805,6.029,-0.027,-0.022,-0.017,107.0,107.0,105.0,13.4,1505.2,322.8,-0.8,1.8,2470.837,13.29,0.034,230.8
2022-04-23T01:28:03,42.805,6.029,-0.038,-0.001,-0.039,107.0,107.0,105.0,13.4,1505.2,329.1,-0.8,1.8,2470.862,13.29,0.038,268.5
2022-04-23T01:31:03,42.805,6.029,-0.029,-0.023,0.0,108.0,110.0,106.0,13.4,1505.2,323.4,-0.8,1.8,2470.852,13.29,0.037,231.6
2022-04-23T01:34:03,42.805,6.029,-0.044,-0.019,-0.021,108.0,106.0,105.0,13.4,1505.2,325.3,-0.7,1.8,2470.875,13.29,0.047,246.6
2022-04-23T01:37:03,42.805,6.029,-0.023,-0.024,-0.004,107.0,107.0,104.0,13.4,1505.2,325.4,-0.8,1.9,2470.867,13.29,0.033,223.8
2022-04-23T01:40:03,42.805,6.029,-0.052,-0.006,-0.014,107.0,106.0,104.0,13.4,1505.2,328.1,-0.8,1.8,2470.863,13.29,0.052,263.4
2022-04-23T01:43:03,42.805,6.029,-0.046,-0.02,-0.024,107.0,107.0,105.0,13.3,1505.2,331.7,-0.7,1.8,2470.861,13.29,0.05,246.5
2022-04-23T01:46:03,42.805,6.029,-0.036,-0.028,-0.01,107.0,108.0,105.0,13.4,1505.2,321.4,-0.7,1.8,2470.862,13.29,0.045,232.1
2022-04-23T01:49:03,42.805,6.029,-0.033,-0.008,-0.003,108.0,107.0,105.0,13.4,1505.2,321.9,-0.7,1.8,2470.88,13.29,0.033,256.4
2022-04-23T01:52:03,42.805,6.029,-0.027,-0.014,-0.026,109.0,107.0,105.0,13.4,1505.2,325.6,-0.8,1.9,2470.851,13.29,0.03,242.6
2022-04-23T01:55:03,42.805,6.029,-0.034,-0.021,-0.025,108.0,106.0,105.0,13.4,1505.2,328.3,-0.8,1.8,2470.908,13.29,0.039,238.3
2022-04-23T01:58:03,42.805,6.029,-0.017,-0.017,-0.009,108.0,106.0,105.0,13.4,1505.2,327.8,-0.8,1.8,2470.889,13.29,0.024,225.0
2022-04-23T02:04:03,42.805,6.029,-0.028,-0.003,-0.009,108.0,111.0,105.0,13.4,1505.2,324.3,-0.8,1.8,2470.892,13.28,0.028,263.9
2022-04-23T02:07:03,42.805,6.029,-0.038,-0.006,0.017,108.0,107.0,106.0,13.4,1505.2,324.3,-0.8,1.8,2470.923,13.28,0.038,261.0
2022-04-23T02:10:03,42.805,6.029,-0.029,-0.009,0.018,108.0,108.0,103.0,13.3,1505.2,325.8,-0.8,1.8,2470.894,13.28,0.03,252.8
2022-04-23T02:13:03,42.805,6.029,-0.031,-0.008,0.014,108.0,107.0,105.0,13.3,1505.2,327.5,-0.7,1.8,2470.87,13.28,0.032,255.5
2022-04-23T02:16:03,42.805,6.029,-0.022,-0.006,-0.007,108.0,107.0,105.0,13.4,1505.2,331.1,-0.8,1.8,2470.9,13.29,0.022,254.7
2022-04-23T02:19:03,42.805,6.029,-0.027,-0.022,0.01,110.0,107.0,103.0,13.4,1505.2,333.2,-0.8,1.8,2470.894,13.29,0.034,230.8
2022-04-23T02:22:03,42.805,6.029,-0.028,-0.013,-0.008,108.0,108.0,105.0,13.4,1505.2,332.8,-0.7,1.8,2470.877,13.29,0.03,245.1
2022-04-23T02:25:03,42.805,6.029,-0.034,0.008,0.024,108.0,106.0,104.0,13.4,1505.2,333.2,-0.7,1.8,2470.91,13.29,0.034,283.2
2022-04-23T02:28:03,42.805,6.029,-0.022,-0.004,-0.027,108.0,107.0,105.0,13.4,1505.2,329.1,-0.8,1.8,2470.844,13.29,0.022,259.7
2022-04-23T02:31:03,42.805,6.029,-0.014,-0.009,-0.012,108.0,106.0,104.0,13.3,1505.2,323.8,-0.7,1.8,2470.866,13.29,0.016,237.3
2022-04-23T02:34:03,42.805,6.029,-0.055,-0.016,0.005,108.0,107.0,105.0,13.4,1505.2,327.3,-0.8,1.8,2470.891,13.29,0.057,253.8
2022-04-23T02:37:03,42.805,6.029,-0.046,0.017,0.001,108.0,107.0,106.0,13.4,1505.2,323.2,-0.7,1.8,2470.878,13.29,0.049,290.3
2022-04-23T02:40:03,42.805,6.029,-0.008,0.0,0.0,107.0,106.0,104.0,13.4,1505.2,330.3,-0.8,1.8,2470.881,13.29,0.008,270.0
2022-04-23T02:43:03,42.805,6.029,-0.03,0.002,-0.02,108.0,106.0,103.0,13.3,1505.2,328.5,-0.7,1.8,2470.871,13.29,0.03,273.8
2022-04-23T02:46:03,42.805,6.029,-0.031,-0.022,-0.021,108.0,105.0,104.0,13.3,1505.2,332.6,-0.8,1.8,2470.866,13.29,0.038,234.6
2022-04-23T02:49:03,42.805,6.029,-0.028,-0.015,-0.012,108.0,106.0,103.0,13.3,1505.2,330.1,-0.8,1.8,2470.871,13.29,0.031,241.8
2022-04-23T02:52:03,42.805,6.029,-0.034,-0.006,0.018,108.0,107.0,104.0,13.4,1505.2,324.3,-0.7,1.8,2470.88,13.29,0.034,260.0
2022-04-23T02:55:03,42.805,6.029,-0.025,-0.001,0.014,107.0,107.0,104.0,13.4,1505.2,323.5,-0.8,1.8,2470.859,13.29,0.025,267.7
2022-04-23T02:58:03,42.805,6.029,-0.019,0.004,0.003,108.0,107.0,104.0,13.4,1505.2,330.3,-0.8,1.9,2470.878,13.29,0.019,281.9
2022-04-23T03:04:03,42.805,6.029,-0.035,-0.003,-0.013,107.0,106.0,105.0,13.4,1505.2,324.1,-0.7,1.8,2470.896,13.28,0.035,265.1
2022-04-23T03:07:03,42.805,6.029,-0.041,-0.016,0.002,108.0,107.0,104.0,13.4,1505.2,325.7,-0.8,1.8,2470.873,13.28,0.044,248.7
2022-04-23T03:10:03,42.805,6.029,-0.033,-0.008,0.015,107.0,105.0,104.0,13.3,1505.2,326.1,-0.8,1.8,2470.851,13.28,0.033,256.4
2022-04-23T03:13:03,42.805,6.029,-0.02,-0.007,0.008,106.0,107.0,104.0,13.4,1505.2,323.9,-0.8,1.8,2470.889,13.29,0.021,250.7
2022-04-23T03:16:03,42.805,6.029,-0.027,0.0,-0.018,107.0,105.0,104.0,13.4,1505.2,328.9,-0.7,1.8,2470.878,13.29,0.026,270.0
2022-04-23T03:19:03,42.805,6.029,-0.02,-0.022,-0.002,107.0,106.0,106.0,13.3,1505.2,330.6,-0.8,1.8,2470.857,13.29,0.029,222.3
2022-04-23T03:22:03,42.805,6.029,-0.029,-0.018,-0.003,107.0,107.0,105.0,13.3,1505.2,326.5,-0.8,1.9,2470.905,13.29,0.034,238.2
2022-04-23T03:25:03,42.805,6.029,-0.028,-0.025,-0.029,107.0,106.0,104.0,13.4,1505.2,324.9,-0.7,1.8,2470.871,13.29,0.037,228.2
2022-04-23T03:28:03,42.805,6.029,-0.029,-0.005,-0.031,108.0,107.0,104.0,13.4,1505.2,325.2,-0.8,1.9,2470.843,13.29,0.029,260.2
2022-04-23T03:31:03,42.805,6.029,-0.031,-0.009,-0.006,107.0,108.0,104.0,13.3,1505.2,322.9,-0.7,1.9,2470.843,13.29,0.032,253.8
2022-04-23T03:34:03,42.805,6.029,-0.016,-0.014,-0.023,108.0,107.0,105.0,13.4,1505.2,330.0,-0.7,1.8,2470.867,13.29,0.021,228.8
2022-04-23T03:37:03,42.805,6.029,-0.04,0.0,0.043,108.0,107.0,105.0,13.4,1505.2,329.1,-0.8,1.8,2470.853,13.29,0.04,270.0
2022-04-23T03:40:03,42.805,6.029,-0.039,-0.009,-0.004,108.0,106.0,104.0,13.4,1505.2,330.9,-0.7,1.8,2470.853,13.29,0.04,257.0
2022-04-23T03:43:03,42.805,6.029,-0.024,-0.022,-0.001,107.0,107.0,104.0,13.4,1505.2,326.5,-0.7,1.8,2470.884,13.29,0.032,227.5
2022-04-23T03:46:03,42.805,6.029,-0.041,0.006,-0.01,107.0,106.0,104.0,13.3,1505.2,330.6,-0.8,1.8,2470.87,13.29,0.041,278.3
2022-04-23T03:49:03,42.805,6.029,-0.04,-0.01,-0.017,107.0,106.0,104.0,13.4,1505.2,331.4,-0.7,1.8,2470.852,13.29,0.041,256.0
2022-04-23T03:52:03,42.805,6.029,-0.026,0.012,-0.024,107.0,107.0,104.0,13.4,1505.2,328.6,-0.8,1.8,2470.873,13.29,0.028,294.8
2022-04-23T03:55:03,42.805,6.029,-0.033,-0.009,-0.009,107.0,107.0,104.0,13.4,1505.2,325.7,-0.8,1.8,2470.862,13.29,0.034,254.7
2022-04-23T03:58:03,42.805,6.029,-0.023,0.004,-0.012,108.0,105.0,104.0,13.4,1505.2,332.1,-0.8,1.8,2470.878,13.29,0.023,279.9
2022-04-23T04:04:03,42.805,6.029,-0.03,-0.003,-0.014,108.0,106.0,103.0,13.4,1505.2,327.7,-0.8,1.8,2470.872,13.28,0.03,264.3
2022-04-23T04:07:03,42.805,6.029,-0.032,-0.002,-0.021,109.0,106.0,105.0,13.4,1505.2,322.8,-0.8,1.8,2470.847,13.28,0.032,266.4
2022-04-23T04:10:03,42.805,6.029,-0.031,0.013,-0.04,109.0,107.0,104.0,13.3,1505.2,331.4,-0.8,1.8,2470.813,13.29,0.033,292.7
2022-04-23T04:13:03,42.805,6.029,-0.01,-0.002,0.0,109.0,107.0,106.0,13.4,1505.2,328.1,-0.8,1.8,2470.87,13.29,0.01,258.7
2022-04-23T04:16:03,42.805,6.029,-0.028,-0.018,-0.03,108.0,107.0,105.0,13.4,1505.2,325.5,-0.8,1.8,2470.819,13.29,0.033,237.3
2022-04-23T04:19:03,42.805,6.029,-0.032,-0.022,-0.023,109.0,107.0,104.0,13.4,1505.2,328.7,-0.8,1.8,2470.846,13.29,0.038,235.5
2022-04-23T04:22:03,42.805,6.029,-0.033,0.005,-0.01,108.0,107.0,105.0,13.4,1505.2,324.0,-0.8,1.8,2470.806,13.29,0.033,278.6
2022-04-23T04:25:03,42.805,6.029,-0.012,-0.013,0.019,108.0,106.0,104.0,13.4,1505.2,332.1,-0.8,1.8,2470.778,13.29,0.017,222.7
2022-04-23T04:28:03,42.805,6.029,-0.019,-0.01,-0.022,107.0,107.0,104.0,13.4,1505.2,322.1,-0.8,1.8,2470.822,13.29,0.021,242.2
2022-04-23T04:31:03,42.805,6.029,-0.043,-0.009,-0.041,107.0,105.0,104.0,13.3,1505.2,327.2,-0.7,1.8,2470.814,13.29,0.043,258.2
2022-04-23T04:34:03,42.805,6.029,-0.031,-0.015,-0.017,107.0,107.0,104.0,13.4,1505.2,325.5,-0.8,1.8,2470.826,13.29,0.034,244.2
2022-04-23T04:37:03,42.805,6.029,-0.014,-0.004,-0.03,107.0,106.0,104.0,13.3,1505.2,330.5,-0.7,1.9,2470.795,13.29,0.014,254.1
2022-04-23T04:40:03,42.805,6.029,-0.038,-0.006,0.001,107.0,105.0,107.0,13.3,1505.2,328.3,-0.8,1.8,2470.777,13.29,0.038,261.0
2022-04-23T04:43:03,42.805,6.029,-0.057,-0.015,-0.006,107.0,107.0,105.0,13.4,1505.2,329.9,-0.8,1.8,2470.828,13.29,0.058,255.3
2022-04-23T04:46:03,42.805,6.029,-0.044,-0.02,-0.012,107.0,106.0,104.0,13.4,1505.2,325.8,-0.8,1.8,2470.779,13.29,0.048,245.6
2022-04-23T04:49:03,42.805,6.029,-0.042,-0.002,0.004,109.0,106.0,105.0,13.3,1505.2,327.0,-0.8,1.8,2470.809,13.29,0.042,267.3
2022-04-23T04:52:03,42.805,6.029,0.0,-0.018,-0.008,109.0,108.0,104.0,13.3,1505.2,323.7,-0.8,1.8,2470.811,13.29,0.018,180.0
2022-04-23T04:55:03,42.805,6.029,-0.01,-0.012,-0.016,107.0,107.0,105.0,13.4,1505.2,322.7,-0.7,1.8,2470.841,13.29,0.015,219.8
2022-04-23T04:58:03,42.805,6.029,-0.032,-0.014,-0.032,107.0,107.0,106.0,13.4,1505.2,333.2,-0.8,1.8,2470.801,13.29,0.034,246.4
2022-04-23T05:04:03,42.805,6.029,-0.019,0.0,-0.052,108.0,106.0,104.0,13.3,1505.2,328.2,-0.8,1.8,2470.833,13.28,0.019,270.0
2022-04-23T05:07:03,42.805,6.029,-0.008,-0.023,-0.005,107.0,106.0,104.0,13.4,1505.2,323.5,-0.8,1.8,2470.83,13.28,0.024,199.2
2022-04-23T05:10:03,42.805,6.029,-0.016,-0.03,0.0,107.0,108.0,104.0,13.3,1505.2,323.8,-0.8,1.8,2470.785,13.28,0.034,208.1
2022-04-23T05:13:03,42.805,6.029,-0.023,-0.012,-0.034,109.0,107.0,105.0,13.4,1505.2,324.7,-0.8,1.9,2470.798,13.29,0.025,242.4
2022-04-23T05:16:03,42.805,6.029,-0.044,-0.009,0.001,107.0,107.0,105.0,13.4,1505.2,326.8,-0.7,1.8,2470.78,13.29,0.044,258.4
2022-04-23T05:19:03,42.805,6.029,-0.046,-0.017,-0.007,109.0,107.0,105.0,13.4,1505.2,322.3,-0.7,1.8,2470.828,13.29,0.049,249.7
2022-04-23T05:22:03,42.805,6.029,-0.032,-0.007,0.02,109.0,108.0,105.0,13.4,1505.2,324.0,-0.7,1.8,2470.828,13.29,0.032,257.7
2022-04-23T05:25:03,42.805,6.029,-0.023,-0.001,-0.003,108.0,107.0,105.0,13.4,1505.2,327.2,-0.8,1.8,2470.831,13.29,0.023,267.5
2022-04-23T05:28:03,42.805,6.029,-0.027,-0.011,-0.016,107.0,109.0,105.0,13.3,1505.2,328.5,-0.7,1.8,2470.811,13.29,0.029,247.8
2022-04-23T05:31:03,42.805,6.029,-0.036,-0.007,-0.029,108.0,107.0,105.0,13.4,1505.2,322.3,-0.8,1.8,2470.794,13.29,0.036,259.0
2022-04-23T05:34:03,42.805,6.029,-0.031,-0.029,-0.008,109.0,107.0,106.0,13.4,1505.2,328.0,-0.7,1.8,2470.829,13.29,0.042,226.9
2022-04-23T05:37:03,42.805,6.029,-0.044,0.001,0.008,109.0,108.0,106.0,13.4,1505.2,323.5,-0.8,1.8,2470.798,13.29,0.044,271.3
2022-04-23T05:40:03,42.805,6.029,-0.049,-0.01,0.008,110.0,108.0,105.0,13.3,1505.2,329.8,-0.7,1.8,2470.803,13.29,0.05,258.5
2022-04-23T05:43:03,42.805,6.029,-0.047,-0.002,-0.027,110.0,109.0,105.0,13.3,1505.2,328.7,-0.8,1.8,2470.772,13.29,0.047,267.6
2022-04-23T05:46:03,42.805,6.029,-0.021,-0.008,0.004,110.0,108.0,106.0,13.4,1505.2,325.4,-0.8,1.8,2470.769,13.29,0.022,249.1
2022-04-23T05:49:03,42.805,6.029,-0.036,-0.007,-0.007,108.0,108.0,104.0,13.4,1505.2,326.6,-0.8,1.9,2470.734,13.29,0.036,259.0
2022-04-23T05:52:03,42.805,6.029,-0.036,-0.009,0.001,108.0,111.0,105.0,13.4,1505.2,326.3,-0.8,1.8,2470.728,13.29,0.037,256.0
2022-04-23T05:55:03,42.805,6.029,-0.029,0.013,0.0,109.0,108.0,106.0,13.4,1505.2,329.8,-0.7,1.8,2470.736,13.29,0.031,294.1
2022-04-23T05:58:03,42.805,6.029,-0.019,-0.016,-0.003,107.0,108.0,105.0,13.3,1505.2,322.1,-0.7,1.8,2470.636,13.29,0.024,229.9
2022-04-23T06:04:03,42.805,6.029,-0.032,0.026,-0.017,108.0,107.0,105.0,13.4,1505.2,328.5,-0.8,1.8,2470.644,13.28,0.041,309.1
2022-04-23T06:07:03,42.805,6.029,-0.023,-0.006,-0.005,108.0,107.0,104.0,13.4,1505.2,325.2,-0.8,1.8,2470.623,13.28,0.023,255.4
2022-04-23T06:10:03,42.805,6.029,-0.041,-0.01,-0.01,108.0,107.0,105.0,13.4,1505.2,324.5,-0.7,1.8,2470.647,13.29,0.042,256.3
2022-04-23T06:13:03,42.805,6.029,-0.016,-0.021,-0.031,107.0,108.0,103.0,13.4,1505.2,325.7,-0.7,1.8,2470.624,13.29,0.026,217.3
2022-04-23T06:16:03,42.805,6.029,-0.036,-0.008,0.0,106.0,108.0,104.0,13.3,1505.2,325.4,-0.8,1.8,2470.619,13.29,0.036,257.5
2022-04-23T06:19:03,42.805,6.029,-0.023,-0.001,0.002,108.0,106.0,103.0,13.4,1505.2,324.0,-0.8,1.8,2470.667,13.29,0.023,267.5
2022-04-23T06:22:03,42.805,6.029,-0.033,-0.003,-0.014,107.0,110.0,105.0,13.4,1505.2,322.9,-0.7,1.8,2470.655,13.29,0.033,264.8
2022-04-23T06:25:03,42.805,6.029,-0.028,-0.002,-0.017,107.0,107.0,104.0,13.3,1505.2,321.8,-0.7,1.8,2470.639,13.29,0.028,265.9
2022-04-23T06:28:03,42.805,6.029,-0.036,0.0,-0.014,108.0,107.0,104.0,13.4,1505.2,332.3,-0.7,1.8,2470.66,13.29,0.036,270.0
2022-04-23T06:31:03,42.805,6.029,-0.038,0.004,-0.013,107.0,108.0,104.0,13.4,1505.2,330.1,-0.7,1.8,2470.672,13.29,0.038,276.0
2022-04-23T06:34:03,42.805,6.029,-0.03,0.006,-0.008,108.0,106.0,103.0,13.3,1505.2,325.6,-0.8,1.9,2470.672,13.29,0.03,281.3
2022-04-23T06:37:03,42.805,6.029,-0.028,0.001,-0.03,107.0,107.0,105.0,13.4,1505.2,329.7,-0.8,1.8,2470.693,13.29,0.028,272.0
2022-04-23T06:40:03,42.805,6.029,-0.015,0.015,0.0,107.0,107.0,105.0,13.4,1505.2,321.8,-0.7,1.8,2470.74,13.29,0.021,315.0
2022-04-23T06:43:03,42.805,6.029,-0.038,-0.009,-0.012,107.0,108.0,105.0,13.3,1505.2,329.0,-0.8,1.8,2470.721,13.29,0.039,256.7
2022-04-23T06:46:03,42.805,6.029,0.004,0.001,-0.037,109.0,106.0,105.0,13.4,1505.2,330.2,-0.8,1.8,2470.759,13.29,0.004,76.0
2022-04-23T06:49:03,42.805,6.029,-0.022,-0.002,-0.018,108.0,106.0,105.0,13.4,1505.2,332.6,-0.8,1.8,2470.733,13.29,0.022,264.8
2022-04-23T06:52:03,42.805,6.029,-0.01,-0.021,0.004,107.0,107.0,110.0,13.3,1505.2,327.4,-0.7,1.8,2470.765,13.29,0.023,205.5
2022-04-23T06:55:03,42.805,6.029,-0.02,0.008,0.013,108.0,106.0,105.0,13.3,1505.2,329.8,-0.8,1.8,2470.754,13.29,0.021,291.8
2022-04-23T06:58:03,42.805,6.029,-0.015,-0.001,0.021,107.0,107.0,105.0,13.4,1505.2,328.5,-0.8,1.8,2470.744,13.29,0.015,266.2
2022-04-23T08:04:02,42.805,6.029,-0.012,-0.013,0.035,104.0,104.0,102.0,13.4,1505.1,332.1,-0.8,1.8,2470.976,13.27,0.017,222.7
2022-04-23T08:07:03,42.805,6.029,-0.023,0.015,0.018,104.0,105.0,102.0,13.4,1505.2,331.5,-0.8,1.8,2470.93,13.28,0.027,303.1
2022-04-23T08:10:03,42.805,6.029,-0.038,0.006,-0.027,105.0,104.0,102.0,13.3,1505.2,330.5,-0.8,1.8,2470.845,13.28,0.038,279.0
2022-04-23T08:13:03,42.805,6.029,-0.018,0.013,-0.026,105.0,105.0,102.0,13.4,1505.2,325.4,-0.8,1.8,2470.858,13.28,0.022,305.8
2022-04-23T08:16:03,42.805,6.029,-0.031,0.009,-0.019,104.0,105.0,103.0,13.4,1505.2,326.8,-0.8,1.8,2470.835,13.28,0.032,286.2
2022-04-23T08:19:03,42.805,6.029,-0.02,-0.024,-0.002,106.0,105.0,102.0,13.4,1505.2,328.8,-0.8,1.8,2470.773,13.29,0.031,219.8
2022-04-23T08:22:03,42.805,6.029,-0.018,0.027,0.006,105.0,105.0,103.0,13.4,1505.2,321.5,-0.8,1.8,2470.812,13.29,0.032,326.3
2022-04-23T08:25:03,42.805,6.029,-0.024,0.023,-0.01,104.0,104.0,102.0,13.3,1505.2,329.7,-0.8,1.8,2470.715,13.29,0.033,313.8
2022-04-23T08:28:03,42.805,6.029,-0.036,0.004,0.001,105.0,105.0,103.0,13.4,1505.2,322.5,-0.8,1.8,2470.717,13.29,0.036,276.3
2022-04-23T08:31:03,42.805,6.029,-0.024,-0.012,-0.009,104.0,104.0,102.0,13.4,1505.2,326.5,-0.8,1.8,2470.728,13.29,0.026,243.4
2022-04-23T08:34:03,42.805,6.029,-0.008,0.014,0.036,105.0,105.0,102.0,13.4,1505.2,327.4,-0.7,1.8,2470.686,13.29,0.016,330.3
2022-04-23T08:37:03,42.805,6.029,-0.021,0.024,0.01,104.0,104.0,103.0,13.4,1505.2,330.4,-0.8,1.8,2470.652,13.29,0.031,318.8
2022-04-23T08:40:03,42.805,6.029,-0.033,-0.002,0.001,106.0,105.0,102.0,13.4,1505.2,325.8,-0.7,1.8,2470.65,13.29,0.033,266.5
2022-04-23T08:43:03,42.805,6.029,-0.024,0.015,0.012,104.0,104.0,103.0,13.4,1505.2,326.6,-0.8,1.8,2470.68,13.29,0.028,302.0
2022-04-23T08:46:03,42.805,6.029,-0.038,0.0,-0.01,107.0,104.0,103.0,13.4,1505.2,325.4,-0.7,1.8,2470.647,13.29,0.038,270.0
2022-04-23T08:49:03,42.805,6.029,0.0,0.002,-0.01,105.0,104.0,103.0,13.4,1505.2,331.3,-0.7,1.8,2470.698,13.29,0.002,0.0
2022-04-23T08:52:03,42.805,6.029,-0.037,0.011,-0.01,105.0,105.0,102.0,13.4,1505.2,324.8,-0.8,1.8,2470.671,13.29,0.038,286.6
2022-04-23T08:55:03,42.805,6.029,-0.038,-0.004,0.0,106.0,104.0,102.0,13.4,1505.2,330.5,-0.8,1.9,2470.69,13.29,0.038,264.0
2022-04-23T08:58:03,42.805,6.029,-0.042,-0.011,0.026,105.0,105.0,103.0,13.4,1505.2,324.2,-0.8,1.8,2470.664,13.29,0.043,255.3
2022-04-23T09:04:03,42.805,6.029,-0.034,-0.002,-0.008,106.0,105.0,103.0,13.4,1505.2,322.2,-0.8,1.8,2470.746,13.29,0.034,266.6
2022-04-23T09:07:03,42.805,6.029,-0.028,0.008,0.01,106.0,104.0,103.0,13.3,1505.2,327.9,-0.7,1.8,2470.784,13.29,0.029,285.9
2022-04-23T09:10:03,42.805,6.029,-0.029,0.006,-0.004,104.0,105.0,102.0,13.4,1505.2,330.7,-0.8,1.8,2470.741,13.29,0.029,281.7
2022-04-23T09:13:03,42.805,6.029,-0.036,-0.014,-0.004,105.0,104.0,102.0,13.3,1505.2,333.0,-0.7,1.8,2470.749,13.29,0.038,248.8
2022-04-23T09:16:03,42.805,6.029,-0.02,-0.008,0.016,104.0,105.0,102.0,13.3,1505.2,322.0,-0.7,1.8,2470.753,13.29,0.021,248.2
2022-04-23T09:19:03,42.805,6.029,-0.024,0.015,0.023,105.0,104.0,102.0,13.4,1505.2,332.5,-0.8,1.8,2470.769,13.29,0.028,302.0
2022-04-23T09:22:03,42.805,6.029,-0.033,0.016,-0.02,105.0,104.0,103.0,13.3,1505.2,329.3,-0.7,1.8,2470.761,13.29,0.036,295.9
2022-04-23T09:25:03,42.805,6.029,-0.029,0.006,0.026,106.0,105.0,104.0,13.4,1505.2,325.3,-0.7,1.8,2470.802,13.29,0.029,281.7
2022-04-23T09:28:03,42.805,6.029,-0.044,0.011,0.032,105.0,104.0,103.0,13.4,1505.2,328.3,-0.8,1.8,2470.809,13.29,0.045,284.0
2022-04-23T09:31:03,42.805,6.029,-0.031,-0.005,0.005,105.0,105.0,102.0,13.3,1505.2,329.6,-0.7,1.8,2470.808,13.29,0.031,260.8
2022-04-23T09:34:03,42.805,6.029,-0.019,-0.002,-0.001,106.0,104.0,102.0,13.4,1505.2,327.6,-0.7,1.8,2470.781,13.29,0.019,264.0
2022-04-23T09:37:03,42.805,6.029,-0.038,-0.023,0.031,107.0,104.0,103.0,13.3,1505.2,321.6,-0.8,1.8,2470.784,13.29,0.044,238.8
2022-04-23T09:40:03,42.805,6.029,-0.027,0.007,-0.034,104.0,104.0,104.0,13.4,1505.2,328.9,-0.7,1.8,2470.785,13.29,0.027,284.5
2022-04-23T09:43:03,42.805,6.029,-0.046,-0.01,-0.006,105.0,105.0,102.0,13.3,1505.2,324.9,-0.7,1.8,2470.801,13.29,0.047,257.7
2022-04-23T09:46:03,42.805,6.029,-0.015,-0.008,-0.007,105.0,105.0,102.0,13.4,1505.2,327.1,-0.7,1.8,2470.757,13.29,0.017,241.9
2022-04-23T09:49:03,42.805,6.029,-0.025,0.023,0.009,106.0,105.0,102.0,13.4,1505.2,329.3,-0.8,1.8,2470.727,13.29,0.033,312.6
2022-04-23T09:52:03,42.805,6.029,-0.002,0.003,-0.002,105.0,104.0,102.0,13.4,1505.2,329.7,-0.8,1.8,2470.685,13.29,0.003,326.3
2022-04-23T09:55:03,42.805,6.029,-0.033,-0.012,-0.017,105.0,104.0,103.0,13.4,1505.2,330.5,-0.7,1.8,2470.695,13.29,0.035,250.0
2022-04-23T09:58:03,42.805,6.029,-0.037,0.015,-0.001,106.0,103.0,103.0,13.4,1505.2,327.8,-0.8,1.8,2470.697,13.29,0.039,292.1
2022-04-23T10:04:03,42.805,6.029,-0.014,-0.003,0.015,105.0,105.0,102.0,13.4,1505.2,329.1,-0.8,1.9,2470.708,13.28,0.014,257.9
2022-04-23T10:07:03,42.805,6.029,-0.027,0.001,0.004,105.0,104.0,101.0,13.3,1505.2,326.0,-0.8,1.8,2470.707,13.28,0.027,272.1
2022-04-23T10:10:03,42.805,6.029,-0.033,0.0,0.012,105.0,104.0,102.0,13.3,1505.2,324.5,-0.8,1.9,2470.676,13.29,0.033,270.0
2022-04-23T10:13:03,42.805,6.029,-0.034,0.007,0.002,105.0,103.0,101.0,13.3,1505.2,323.8,-0.8,1.8,2470.734,13.29,0.034,281.6
2022-04-23T10:16:03,42.805,6.029,-0.027,0.002,-0.004,104.0,104.0,101.0,13.4,1505.2,324.7,-0.7,1.8,2470.73,13.29,0.027,274.2
2022-04-23T10:19:03,42.805,6.029,-0.005,0.007,0.001,105.0,104.0,101.0,13.4,1505.2,329.1,-0.8,1.9,2470.763,13.29,0.008,324.5
2022-04-23T10:22:03,42.805,6.029,-0.037,-0.022,-0.019,104.0,104.0,101.0,13.3,1505.2,325.8,-0.8,1.8,2470.767,13.29,0.043,239.3
2022-04-23T10:25:03,42.805,6.029,-0.03,0.011,0.006,103.0,103.0,102.0,13.4,1505.2,328.7,-0.8,1.8,2470.731,13.29,0.031,290.1
2022-04-23T10:28:03,42.805,6.029,-0.025,0.005,0.019,104.0,104.0,102.0,13.4,1505.2,325.0,-0.8,1.8,2470.733,13.29,0.025,281.3
2022-04-23T10:31:03,42.805,6.029,-0.026,-0.005,0.001,104.0,105.0,102.0,13.3,1505.2,332.1,-0.8,1.8,2470.775,13.29,0.026,259.1
2022-04-23T10:34:03,42.805,6.029,-0.017,-0.005,-0.008,104.0,107.0,103.0,13.3,1505.2,324.7,-0.8,1.8,2470.77,13.29,0.017,253.6
2022-04-23T10:37:03,42.805,6.029,-0.015,-0.019,0.001,105.0,104.0,102.0,13.4,1505.2,327.2,-0.7,1.8,2470.805,13.29,0.024,218.3
2022-04-23T10:40:03,42.805,6.029,-0.031,0.009,0.011,104.0,106.0,102.0,13.3,1505.2,326.9,-0.8,1.8,2470.751,13.29,0.032,286.2
2022-04-23T10:43:03,42.805,6.029,-0.043,-0.014,-0.017,106.0,105.0,102.0,13.4,1505.2,330.3,-0.7,1.8,2470.815,13.29,0.045,252.0
2022-04-23T10:46:03,42.805,6.029,-0.016,0.009,-0.009,105.0,103.0,102.0,13.4,1505.2,324.2,-0.7,1.8,2470.785,13.29,0.018,299.4
2022-04-23T10:49:03,42.805,6.029,-0.006,-0.004,0.013,104.0,104.0,102.0,13.4,1505.2,324.6,-0.8,1.8,2470.766,13.29,0.007,236.3
2022-04-23T10:52:03,42.805,6.029,-0.038,0.004,-0.03,102.0,104.0,104.0,13.4,1505.2,324.1,-0.8,1.8,2470.758,13.29,0.038,276.0